Regional Weather Roundup
Issued by NWS

Home | Current Version | Previous Version | Text Only | Print | Product List | Glossary Off
Versions: 1 2 3 4 5 6 7 8 9 10 11 12 13 14 15 16 17 18 19 20 21 22 23 24 25 26 27 28 29 30 31 32 33 34 35 36 37 38 39 40 41 42 43 44 45 46 47 48 49 50

000
ASUS43 KBIS 171010
RWRND

NORTH DAKOTA REGIONAL WEATHER ROUNDUP
NATIONAL WEATHER SERVICE BISMARCK ND
500 AM CDT THU APR 17 2014

NOTE: "FAIR" INDICATES FEW OR NO CLOUDS BELOW 12,000 FEET WITH NO
SIGNIFICANT WEATHER AND/OR OBSTRUCTIONS TO VISIBILITY.


NDZ001>003-009>011-017-171100-
NORTHWEST NORTH DAKOTA

CITY           SKY/WX    TMP DP  RH WIND       PRES   REMARKS
WILLISTON        N/A    N/A N/A N/A MISG      30.24S
MINOT          CLOUDY    23  11  60 E8        30.31S WCI  14
MINOT AFB      CLOUDY    22  14  71 E7        30.31S WCI  14
$$

NDZ018>021-031>035-040>046-171100-
SOUTHWEST NORTH DAKOTA

CITY           SKY/WX    TMP DP  RH WIND       PRES   REMARKS
BISMARCK       CLOUDY    25  16  68 E10       30.30R WCI  15
DICKINSON      CLOUDY    27  19  72 E10       30.18S WCI  17
GARRISON         N/A     24  14  65 E10       30.28R WCI  14
HETTINGER ARPT CLOUDY    28  20  71 SE10      30.19S WCI  19
$$

NDZ004>008-012>016-024-026-027-054-171100-
NORTHEAST NORTH DAKOTA

CITY           SKY/WX    TMP DP  RH WIND       PRES   REMARKS
GRAND FORKS    CLEAR     22  18  85 NW8       30.32R WCI  12
GRND FRKS AFB  CLEAR     21  16  81 N9        30.33R WCI  11
DEVILS LAKE    CLEAR     19   9  63 N3        30.32R
$$

NDZ022-023-025-028>030-036>039-047>053-171100-
SOUTHEAST NORTH DAKOTA

CITY           SKY/WX    TMP DP  RH WIND       PRES   REMARKS
FARGO          CLEAR     21  15  78 N7        30.28S WCI  12
JAMESTOWN      CLEAR     19  17  92 N6        30.28S WCI  11
$$




USA.gov is the U.S. government's official web portal to all federal, state and local government web resources and services.